• Processing (Info)

  • MPEC 2011-V24 : 2011 VS5

    The following Minor Planet Electronic Circular may be linked-to from your own Web pages, but must not otherwise be redistributed electronically.

    A form allowing access to any MPEC is at the bottom of this page.


    Read MPEC 2011-V23 Read MPEC 2011-V25


    M.P.E.C. 2011-V24                                Issued 2011 Nov. 5, 17:38 UT
    
         The Minor Planet Electronic Circulars contain information on unusual
             minor planets and routine data on comets.  They are published
       on behalf of Commission 20 of the International Astronomical Union by the
              Minor Planet Center, Smithsonian Astrophysical Observatory,
                              Cambridge, MA 02138, U.S.A.
    
                 Prepared using the Tamkin Foundation Computer Network
    
                                  MPC@CFA.HARVARD.EDU
                URL https://www.minorplanetcenter.net/    ISSN 1523-6714
    
                                       2011 VS5
    
    Observations:
         K11V05S* C2011 11 03.25268 01 26 59.10 +30 51 08.5          19.5  cEV024704
         K11V05S  C2011 11 03.26586 01 26 56.18 +30 51 06.6          20.3  cEV024704
         K11V05S  C2011 11 03.27811 01 26 53.39 +30 51 06.5          19.7  cEV024704
         K11V05S  C2011 11 03.29040 01 26 50.61 +30 51 05.5          19.6  cEV024704
         K11V05S  C2011 11 03.30302 01 26 47.69 +30 51 03.4          19.8  cEV024704
         K11V05S  C2011 11 04.77922 01 21 24.78 +30 48 35.8          18.5 RuEV024B18
         K11V05S  C2011 11 04.78133 01 21 24.31 +30 48 35.4          18.7 RuEV024B18
         K11V05S  C2011 11 04.78554 01 21 23.32 +30 48 34.9          18.9 RuEV024B18
         K11V05S  C2011 11 04.78834 01 21 22.69 +30 48 35.0          18.8 RuEV024B18
         K11V05S  C2011 11 04.88056 01 21 01.73 +30 48 22.4          18.6 RvEV024C32
         K11V05S  C2011 11 04.88225 01 21 01.39 +30 48 22.3          18.4 RvEV024C32
         K11V05S  C2011 11 04.88720 01 21 00.23 +30 48 21.3          18.7 RvEV024C32
         K11V05S  C2011 11 04.88884 01 20 59.89 +30 48 20.8          18.5 RvEV024C32
         K11V05S KC2011 11 05.05676301 20 24.26 +30 47 57.2          20.0 VtEV024H21
         K11V05S KC2011 11 05.06080901 20 23.32 +30 47 56.5          19.7 VtEV024H21
         K11V05S KC2011 11 05.06583401 20 22.19 +30 47 55.9          20.0 VtEV024H21
         K11V05S KC2011 11 05.07080901 20 21.04 +30 47 55.3          20.2 VtEV024H21
         K11V05S KC2011 11 05.29403 01 19 30.16 +30 47 22.7          19.6 RrEV024850
         K11V05S KC2011 11 05.31216 01 19 26.11 +30 47 18.8          19.1 RrEV024850
         K11V05S KC2011 11 05.33024 01 19 22.00 +30 47 14.1          18.4 RrEV024850
    
    Observer details:
    704 Lincoln Laboratory ETS, New Mexico.  Observers M. Blythe, G. Spitz,
        R. Brungard, J. Paige, P. Festler, T. McVey, A. Valdivia, C. Gall.  1.0-m
        f/2.15 reflector + CCD.
    850 Cordell-Lorenz Observatory, Sewanee.  Observers D. T. Durig, M. S. Rudolph,
        J. R. Davis, H. T. Dziminski.  0.30-m f/2.6 Schmidt-Cassegrain
        + 765x510 CCD.
    B18 Terskol.  Observers M. Andreev, A. Sergeev, N. Parakhin, V. Kozlov,
        N. Karpov.  Measurer M. Andreev.  0.6-m f/12.8 Cassegrain + CCD.
    C32 Ka-Dar Observatory, TAU Station, Nizhny Arkhyz.  Observer V. Gerke.
        Measurer A. Novichonok.  0.40-m f/8 Ritchey-Chretien + CCD.
    H21 Astronomical Research Observatory, Westfield.  Observer R. Holmes.
        Measurers T. Vorobjov, L. Buzzi, S. Foglia.  0.61-m f/4.0 astrograph + CCD.
    
    Orbital elements:
    2011 VS5                                                 Earth MOID = 0.1547 AU
    Epoch 2011 Aug. 27.0 TT = JDT 2455800.5                 MPC
    M 226.38117              (2000.0)            P               Q
    n   0.71313048     Peri.  172.72343     -0.98004408     -0.19844400
    a   1.2407665      Node   355.77765     +0.17355408     -0.82587672
    e   0.4223623      Incl.    9.03133     +0.09691533     -0.52777611
    P   1.38           H   19.6           G   0.15           U   9
    Residuals in seconds of arc
    111103 704  0.4-  0.6+    111104 B18  0.2-  0.6-    111105 H21  0.0   0.1+
    111103 704  0.4+  0.4-    111104 B18  0.1-  0.2-    111105 H21  0.0   0.1+
    111103 704  0.2+  0.4+    111104 C32  0.3-  0.3+    111105 H21  0.3-  0.1+
    111103 704  0.3+  0.3+    111104 C32  0.3+  0.5+    111105 850  0.3-  0.5+
    111103 704  0.6-  0.7-    111104 C32  0.2-  0.3+    111105 850  0.4+  0.2+
    111104 B18  0.1+  0.5-    111104 C32  0.2+  0.0     111105 850  0.1-  0.8-
    111104 B18  0.2+  0.6-    111105 H21  0.3+  0.4+
    
    Ephemeris:
    2011 VS5                 a,e,i = 1.24, 0.42, 9                   q = 0.7167
    Date    TT    R. A. (2000) Decl.     Delta      r     Elong.  Phase     V
    2011 10 06    02 41 17.0 +27 24 23   0.6141  1.5409   144.3    22.3    20.6
    ...
    2011 10 21    02 10 30.3 +30 00 46   0.4976  1.4715   159.2    13.9    19.7
    ...
    2011 10 29    01 45 35.2 +30 45 47   0.4534  1.4307   161.5    12.7    19.4
    ...
    2011 11 04    01 24 15.9 +30 50 10   0.4293  1.3983   157.5    15.7    19.4
    2011 11 05    01 20 36.1 +30 48 10   0.4261  1.3928   156.5    16.5    19.4
    2011 11 06    01 16 55.5 +30 45 24   0.4230  1.3872   155.4    17.3    19.4
    ...
    2011 11 12    00 55 02.5 +30 12 55   0.4090  1.3529   147.5    23.1    19.4
    ...
    2011 11 20    00 28 13.7 +28 55 08   0.4001  1.3049   135.7    31.9    19.5
    ...
    2011 12 05    23 52 21.4 +25 51 52   0.4025  1.2085   114.3    48.0    19.8
    
    A. U. Tomatic                (C) Copyright 2011 MPC           M.P.E.C. 2011-V24
    

    Read MPEC 2011-V23 Read MPEC 2011-V25


    MPEC number:

    Enter an MPEC number in one of the following forms:

    • 1997-B01 (the full form)
    • J97B01 (the packed version of the full form)
    • B01 (the abbreviated form)